Flag for U.S.A. Weather past 2 weeks in San Diego, California, U.S.A.

Now
71 °F

Overcast.


Feels Like: 72 °F
Forecast: 70 / 77 °F
Wind: 3 mph from North

Location: San Diego - North Island

Current Time: Jul 31, 2015 at 3:13:26 AM

Latest Report: Jul 31, 2015 at 2:52 AM


Visibility: 9 mi

Pressure: 30.00 "Hg

Humidity: 78%

Dew point: 64 °F

Location of San DiegoLocation

Historic Weather in San Diego — Graph

°F

San Diego temperature yesterday

Maximum temperature yesterday: 78 °F (at 3:52 PM)
Minimum temperature yesterday: 69 °F (at 12:52 AM)
Average temperature yesterday: 72 °F

Past Weeks' High & Low Weather Summary

 TemperatureHumidityPressure
High82 °F (Jul 19, 12:52 PM)100% (Jul 20, 5:52 AM)30.06 "Hg (Jul 20, 5:52 AM)
Low64 °F (Jul 16, 5:52 AM)56% (Jul 19, 8:52 AM)29.81 "Hg (Jul 17, 5:52 PM)
Average71 °F80%29.93 "Hg
* Reported Jul 16 1:52 AM — Jul 31 1:52 AM, San Diego, Weather by CustomWeather, © 2015

Note: Actual official high and low records may vary slightly from our data, if they occured in-between our weather recording intervals... More about our weather records

Advertising

San Diego weather history for previous 24 hours

 ConditionsComfort  
Time TempWeatherWind HumidityBarometerVisibility
1:52 AM
Fri, Jul 31
72 °FOvercast.7 mph76%30.01 "Hg8 mi
12:52 AM71 °FOvercast.5 mph78%30.01 "Hg8 mi
11:52 PM
Thu, Jul 30
70 °FOvercast.No wind76%30.03 "Hg8 mi
10:52 PM71 °FPassing clouds.3 mph78%30.03 "Hg8 mi
9:52 PM71 °FPartly cloudy.7 mph76%30.02 "Hg7 mi
8:52 PM71 °FPartly cloudy.7 mph76%30.00 "Hg7 mi
7:52 PM71 °FBroken clouds.7 mph78%29.99 "Hg6 mi
6:52 PM71 °FBroken clouds.8 mph81%29.98 "Hg6 mi
5:52 PM75 °FBroken clouds.9 mph74%29.97 "Hg6 mi
4:52 PM77 °FBroken clouds.10 mph69%29.97 "Hg6 mi
3:52 PM78 °FBroken clouds.10 mph69%29.98 "Hg6 mi
2:52 PM77 °FFog.9 mph69%29.98 "Hg6 mi
1:52 PM77 °FScattered clouds.12 mph66%29.99 "Hg10 mi
12:52 PM76 °FScattered clouds.10 mph69%30.00 "Hg10 mi
11:52 AM76 °FScattered clouds.10 mph69%30.01 "Hg10 mi
10:52 AM74 °FScattered clouds.9 mph74%30.00 "Hg10 mi
9:52 AM73 °FScattered clouds.7 mph76%30.00 "Hg10 mi
8:52 AM73 °FBroken clouds.5 mph76%30.01 "Hg10 mi
7:52 AM72 °FPartly sunny.3 mph78%30.00 "Hg10 mi
6:52 AM71 °FPassing clouds.6 mph78%29.98 "Hg10 mi
5:52 AM70 °FPassing clouds.6 mph81%29.96 "Hg10 mi
4:52 AM69 °FPartly cloudy.6 mph84%29.95 "Hg10 mi
3:52 AM69 °FPassing clouds.8 mph84%29.94 "Hg10 mi
Weather by CustomWeather, © 2015

See weather overviewHow to use our weather pages